| time (UTC) | temp F | wind direction | speed knots | gust knots | rain 1hr in | rain 24hr in | rain mn in | humidity % | barometer mb |
| 20260507065041 | 40 | 0 | 0.0 | 0.9 | 0.00 | 0.00 | 0.00 | 83 | 1016.7 |
| 20260507064550 | 40 | 0 | 0.0 | 0.9 | 0.00 | 0.00 | 0.00 | 83 | 1016.7 |
| 20260507064040 | 40 | 0 | 0.0 | 0.9 | 0.00 | 0.00 | 0.00 | 82 | 1016.8 |
| 20260507063939 | 40 | 0 | 0.0 | 0.9 | 0.00 | 0.00 | 0.00 | 82 | 1016.8 |
| 20260507063054 | 40 | 0 | 0.0 | 0.0 | 0.00 | 0.00 | 0.00 | 82 | 1016.8 |
| 20260507062541 | 40 | 0 | 0.0 | 0.9 | 0.00 | 0.00 | 0.00 | 81 | 1016.8 |
| 20260507062136 | 41 | 0 | 0.0 | 0.9 | 0.00 | 0.00 | 0.00 | 82 | 1016.8 |
| 20260507061549 | 41 | 0 | 0.0 | 0.9 | 0.00 | 0.00 | 0.00 | 81 | 1016.7 |
| 20260507061133 | 41 | 0 | 0.0 | 0.9 | 0.00 | 0.00 | 0.00 | 81 | 1016.8 |
| 20260507055038 | 41 | 0 | 0.0 | 0.0 | 0.00 | 0.00 | 0.00 | 79 | 1016.9 |
| 20260507054544 | 41 | 0 | 0.0 | 0.9 | 0.00 | 0.00 | 0.00 | 79 | 1016.8 |
| 20260507054035 | 41 | 0 | 0.0 | 0.9 | 0.00 | 0.00 | 0.00 | 80 | 1016.8 |
| 20260507053537 | 42 | 0 | 0.0 | 0.9 | 0.00 | 0.00 | 0.00 | 79 | 1016.9 |
| 20260507053050 | 42 | 0 | 0.0 | 0.0 | 0.00 | 0.00 | 0.00 | 79 | 1016.8 |
| 20260507052540 | 42 | 0 | 0.0 | 0.9 | 0.00 | 0.00 | 0.00 | 79 | 1016.9 |
| 20260507052036 | 42 | 0 | 0.0 | 0.9 | 0.00 | 0.00 | 0.00 | 79 | 1016.8 |
| 20260507051545 | 42 | 0 | 0.0 | 0.9 | 0.00 | 0.00 | 0.00 | 78 | 1016.9 |
| 20260507051035 | 42 | 0 | 0.0 | 0.9 | 0.00 | 0.00 | 0.00 | 78 | 1016.8 |
| 20260507050538 | 42 | 0 | 0.0 | 0.9 | 0.00 | 0.00 | 0.00 | 77 | 1016.7 |
| 20260507050104 | 43 | 0 | 0.0 | 0.9 | 0.00 | 0.00 | 0.00 | 76 | 1016.9 |
| 20260507045539 | 43 | 0 | 0.0 | 0.9 | 0.00 | 0.00 | 0.00 | 76 | 1016.8 |
| 20260507045041 | 43 | 0 | 0.0 | 0.9 | 0.00 | 0.00 | 0.00 | 76 | 1017.0 |
| 20260507044551 | 43 | 0 | 0.0 | 0.9 | 0.00 | 0.00 | 0.00 | 75 | 1016.8 |
| 20260507044041 | 43 | 0 | 0.0 | 0.9 | 0.00 | 0.00 | 0.00 | 75 | 1016.8 |
| 20260507043540 | 43 | 0 | 0.0 | 0.9 | 0.00 | 0.00 | 0.00 | 75 | 1016.8 |
| 20260507043048 | 43 | 0 | 0.0 | 0.9 | 0.00 | 0.00 | 0.00 | 76 | 1016.9 |
| 20260507042543 | 44 | 0 | 0.0 | 0.9 | 0.00 | 0.00 | 0.00 | 75 | 1016.9 |
| 20260507042043 | 44 | 0 | 0.0 | 0.9 | 0.00 | 0.00 | 0.00 | 74 | 1016.8 |
| 20260507041550 | 44 | 0 | 0.0 | 0.9 | 0.00 | 0.00 | 0.00 | 73 | 1016.8 |
| 20260507041038 | 44 | 0 | 0.0 | 0.9 | 0.00 | 0.00 | 0.00 | 73 | 1016.7 |
| 20260507040541 | 44 | 0 | 0.0 | 0.9 | 0.00 | 0.00 | 0.00 | 73 | 1016.8 |
| 20260507040051 | 44 | 0 | 0.0 | 0.9 | 0.00 | 0.00 | 0.00 | 73 | 1016.8 |
| 20260507035541 | 44 | 0 | 0.0 | 0.9 | 0.00 | 0.00 | 0.00 | 73 | 1016.8 |
| 20260507035043 | 45 | 0 | 0.0 | 0.9 | 0.00 | 0.00 | 0.00 | 72 | 1016.8 |
| 20260507034549 | 45 | 0 | 0.0 | 0.9 | 0.00 | 0.00 | 0.00 | 72 | 1016.8 |
| 20260507034039 | 45 | 0 | 0.0 | 0.9 | 0.00 | 0.00 | 0.00 | 71 | 1016.8 |
| 20260507033539 | 45 | 0 | 0.0 | 0.9 | 0.00 | 0.00 | 0.00 | 69 | 1016.9 |
| 20260507033051 | 45 | 0 | 0.0 | 0.9 | 0.00 | 0.00 | 0.00 | 69 | 1016.9 |
| 20260507032540 | 46 | 0 | 0.0 | 0.9 | 0.00 | 0.00 | 0.00 | 69 | 1016.9 |
| 20260507032041 | 46 | 0 | 0.0 | 0.9 | 0.00 | 0.00 | 0.00 | 69 | 1016.8 |
| 20260507031548 | 46 | 0 | 0.0 | 0.9 | 0.00 | 0.00 | 0.00 | 69 | 1017.0 |
| 20260507031041 | 46 | 0 | 0.0 | 0.9 | 0.00 | 0.00 | 0.00 | 67 | 1017.0 |
| 20260507030538 | 46 | 0 | 0.0 | 0.9 | 0.00 | 0.00 | 0.00 | 66 | 1016.9 |
| 20260507030052 | 47 | 0 | 0.0 | 0.9 | 0.00 | 0.00 | 0.00 | 67 | 1017.0 |
| 20260507025540 | 47 | 0 | 0.0 | 0.9 | 0.00 | 0.00 | 0.00 | 67 | 1017.0 |
| 20260507025041 | 47 | 0 | 0.0 | 0.9 | 0.00 | 0.00 | 0.00 | 68 | 1016.9 |
| 20260507024549 | 48 | 0 | 0.0 | 0.9 | 0.00 | 0.00 | 0.00 | 66 | 1016.9 |
| 20260507024038 | 48 | 0 | 0.0 | 0.9 | 0.00 | 0.00 | 0.00 | 66 | 1017.0 |
| 20260507023545 | 48 | 0 | 0.0 | 0.9 | 0.00 | 0.00 | 0.00 | 62 | 1016.8 |
| 20260507023048 | 48 | 0 | 0.0 | 0.9 | 0.00 | 0.00 | 0.00 | 61 | 1016.9 |
| 20260507022541 | 48 | 0 | 0.0 | 0.9 | 0.00 | 0.00 | 0.00 | 61 | 1016.8 |
| 20260507022038 | 49 | 0 | 0.0 | 0.9 | 0.00 | 0.00 | 0.00 | 62 | 1016.7 |
| 20260507021558 | 49 | 0 | 0.0 | 0.9 | 0.00 | 0.00 | 0.00 | 62 | 1016.6 |
| 20260507021042 | 49 | 0 | 0.0 | 0.9 | 0.00 | 0.00 | 0.00 | 60 | 1016.6 |
| 20260507020541 | 50 | 0 | 0.0 | 0.9 | 0.00 | 0.00 | 0.00 | 59 | 1016.5 |
| 20260507020049 | 50 | 0 | 0.0 | 0.9 | 0.00 | 0.00 | 0.00 | 60 | 1016.4 |
| 20260507015538 | 50 | 0 | 0.0 | 0.9 | 0.00 | 0.00 | 0.00 | 56 | 1016.4 |
| 20260507015039 | 50 | 0 | 0.0 | 0.9 | 0.00 | 0.00 | 0.00 | 58 | 1016.3 |
| 20260507014549 | 51 | 0 | 0.0 | 0.9 | 0.00 | 0.00 | 0.00 | 57 | 1016.3 |
| 20260507014039 | 51 | 205 | 0.0 | 1.7 | 0.00 | 0.00 | 0.00 | 56 | 1016.3 |
| 20260507013537 | 51 | 0 | 0.0 | 1.7 | 0.00 | 0.00 | 0.00 | 55 | 1016.2 |
| 20260507013051 | 51 | 265 | 0.0 | 2.6 | 0.00 | 0.00 | 0.00 | 55 | 1016.0 |
| 20260507012541 | 51 | 0 | 0.0 | 2.6 | 0.00 | 0.00 | 0.00 | 53 | 1016.1 |
| 20260507012039 | 52 | 0 | 0.0 | 1.7 | 0.00 | 0.00 | 0.00 | 53 | 1016.1 |
| 20260507011550 | 52 | 0 | 0.0 | 2.6 | 0.00 | 0.00 | 0.00 | 51 | 1016.0 |
| 20260507011035 | 52 | 239 | 0.0 | 2.6 | 0.00 | 0.00 | 0.00 | 50 | 1015.9 |
| 20260507010538 | 53 | 255 | 0.0 | 2.6 | 0.00 | 0.00 | 0.00 | 52 | 1015.9 |
| 20260507010049 | 53 | 0 | 0.0 | 2.6 | 0.00 | 0.00 | 0.00 | 50 | 1015.9 |
| 20260507005537 | 53 | 254 | 0.0 | 5.2 | 0.00 | 0.00 | 0.00 | 50 | 1015.8 |
| 20260507005041 | 53 | 0 | 0.0 | 5.2 | 0.00 | 0.00 | 0.00 | 51 | 1015.8 |
| 20260507004543 | 54 | 221 | 0.9 | 5.2 | 0.00 | 0.00 | 0.00 | 50 | 1015.7 |
| 20260507004038 | 54 | 265 | 0.9 | 5.2 | 0.00 | 0.00 | 0.00 | 49 | 1015.6 |
| 20260507003539 | 54 | 265 | 0.9 | 5.2 | 0.00 | 0.00 | 0.00 | 49 | 1015.6 |
| 20260507003044 | 54 | 0 | 0.0 | 5.2 | 0.00 | 0.00 | 0.00 | 48 | 1015.7 |
| 20260507002537 | 54 | 239 | 0.9 | 3.5 | 0.00 | 0.00 | 0.00 | 48 | 1015.5 |
| 20260507002036 | 55 | 0 | 0.9 | 5.2 | 0.00 | 0.00 | 0.00 | 48 | 1015.5 |
| 20260507001548 | 55 | 265 | 0.9 | 5.2 | 0.00 | 0.00 | 0.00 | 48 | 1015.5 |
| 20260507001035 | 55 | 259 | 0.0 | 2.6 | 0.00 | 0.00 | 0.00 | 48 | 1015.5 |
| 20260507000539 | 55 | 72 | 0.9 | 3.5 | 0.00 | 0.00 | 0.00 | 45 | 1015.4 |
| 20260507000051 | 55 | 34 | 0.0 | 3.5 | 0.00 | 0.00 | 0.00 | 47 | 1015.4 |
| 20260506235539 | 55 | 178 | 0.9 | 6.1 | 0.00 | 0.00 | 0.00 | 47 | 1015.5 |
| 20260506235035 | 55 | 280 | 0.9 | 6.1 | 0.00 | 0.00 | 0.00 | 46 | 1015.5 |
| 20260506234550 | 55 | 292 | 0.9 | 2.6 | 0.00 | 0.00 | 0.00 | 48 | 1015.5 |
| 20260506234038 | 55 | 0 | 0.0 | 4.3 | 0.00 | 0.00 | 0.00 | 47 | 1015.5 |
| 20260506233538 | 55 | 250 | 0.0 | 6.1 | 0.00 | 0.00 | 0.00 | 47 | 1015.5 |
| 20260506233045 | 55 | 316 | 0.9 | 7.8 | 0.00 | 0.00 | 0.00 | 46 | 1015.6 |
| 20260506232540 | 56 | 0 | 0.9 | 7.8 | 0.00 | 0.00 | 0.00 | 46 | 1015.6 |
| 20260506232038 | 56 | 265 | 0.9 | 5.2 | 0.00 | 0.00 | 0.00 | 45 | 1015.7 |
| 20260506231545 | 56 | 254 | 0.0 | 5.2 | 0.00 | 0.00 | 0.00 | 47 | 1015.5 |
| 20260506231040 | 56 | 265 | 0.9 | 5.2 | 0.00 | 0.00 | 0.00 | 45 | 1015.6 |
| 20260506230537 | 56 | 0 | 0.0 | 5.2 | 0.00 | 0.00 | 0.00 | 46 | 1015.4 |
| 20260506230048 | 56 | 0 | 0.0 | 3.5 | 0.00 | 0.00 | 0.00 | 46 | 1015.4 |
| 20260506225536 | 56 | 0 | 0.9 | 3.5 | 0.00 | 0.00 | 0.00 | 45 | 1015.4 |
| 20260506225040 | 56 | 265 | 0.0 | 3.5 | 0.00 | 0.00 | 0.00 | 44 | 1015.5 |
| 20260506224550 | 57 | 178 | 0.9 | 4.3 | 0.00 | 0.00 | 0.00 | 44 | 1015.5 |
| 20260506224040 | 57 | 265 | 0.9 | 4.3 | 0.00 | 0.00 | 0.00 | 44 | 1015.4 |
| 20260506223542 | 57 | 0 | 0.9 | 6.1 | 0.00 | 0.00 | 0.00 | 43 | 1015.4 |
| 20260506223050 | 57 | 265 | 0.9 | 7.0 | 0.00 | 0.00 | 0.00 | 44 | 1015.3 |
| 20260506222540 | 57 | 282 | 0.9 | 7.0 | 0.00 | 0.00 | 0.00 | 45 | 1015.2 |
| 20260506222045 | 57 | 286 | 0.9 | 5.2 | 0.00 | 0.00 | 0.00 | 44 | 1015.2 |
| 20260506221555 | 57 | 254 | 0.9 | 5.2 | 0.00 | 0.00 | 0.00 | 44 | 1015.1 |
| 20260506221044 | 57 | 0 | 0.9 | 5.2 | 0.00 | 0.00 | 0.00 | 43 | 1015.2 |
| 20260506220541 | 57 | 334 | 0.9 | 7.0 | 0.00 | 0.00 | 0.00 | 42 | 1015.1 |
| 20260506220052 | 58 | 205 | 0.9 | 7.0 | 0.00 | 0.00 | 0.00 | 44 | 1015.1 |
| 20260506215540 | 58 | 250 | 1.7 | 7.0 | 0.00 | 0.00 | 0.00 | 43 | 1015.1 |
| 20260506215041 | 58 | 265 | 0.9 | 7.0 | 0.00 | 0.00 | 0.00 | 42 | 1015.1 |
| 20260506214548 | 58 | 286 | 0.9 | 6.1 | 0.00 | 0.00 | 0.00 | 44 | 1015.2 |
| 20260506214041 | 58 | 321 | 0.9 | 6.1 | 0.00 | 0.00 | 0.00 | 44 | 1015.1 |
| 20260506213543 | 58 | 279 | 0.9 | 5.2 | 0.00 | 0.00 | 0.00 | 44 | 1015.2 |
| 20260506213049 | 58 | 51 | 0.9 | 5.2 | 0.00 | 0.00 | 0.00 | 46 | 1015.2 |
| 20260506212541 | 58 | 265 | 0.9 | 5.2 | 0.00 | 0.00 | 0.00 | 44 | 1015.2 |
| 20260506212041 | 58 | 257 | 0.9 | 10.4 | 0.00 | 0.00 | 0.00 | 43 | 1015.2 |
| 20260506211549 | 59 | 51 | 0.9 | 10.4 | 0.00 | 0.00 | 0.00 | 43 | 1015.2 |
| 20260506211038 | 59 | 168 | 1.7 | 7.8 | 0.00 | 0.00 | 0.00 | 43 | 1015.2 |
| 20260506210539 | 59 | 250 | 0.9 | 7.0 | 0.00 | 0.00 | 0.00 | 44 | 1015.3 |
| 20260506210054 | 58 | 0 | 0.9 | 7.0 | 0.00 | 0.00 | 0.00 | 44 | 1015.3 |
| 20260506205541 | 58 | 178 | 1.7 | 6.1 | 0.00 | 0.00 | 0.00 | 41 | 1015.3 |
| 20260506205041 | 59 | 284 | 0.9 | 5.2 | 0.00 | 0.00 | 0.00 | 42 | 1015.3 |
| 20260506204559 | 59 | 250 | 0.9 | 5.2 | 0.00 | 0.00 | 0.00 | 41 | 1015.2 |
| 20260506204045 | 59 | 178 | 0.9 | 5.2 | 0.00 | 0.00 | 0.00 | 42 | 1015.4 |
| 20260506203541 | 60 | 0 | 0.9 | 5.2 | 0.00 | 0.00 | 0.00 | 44 | 1015.4 |
| 20260506203048 | 59 | 0 | 0.9 | 5.2 | 0.00 | 0.00 | 0.00 | 44 | 1015.2 |
| 20260506202541 | 59 | 68 | 0.9 | 5.2 | 0.00 | 0.00 | 0.00 | 42 | 1015.3 |
| 20260506202041 | 59 | 265 | 1.7 | 8.7 | 0.00 | 0.00 | 0.00 | 43 | 1015.4 |
| 20260506201553 | 58 | 0 | 1.7 | 8.7 | 0.00 | 0.00 | 0.00 | 43 | 1015.5 |
| 20260506201040 | 58 | 265 | 0.9 | 8.7 | 0.00 | 0.00 | 0.00 | 44 | 1015.5 |
| 20260506200540 | 58 | 26 | 0.9 | 5.2 | 0.00 | 0.00 | 0.00 | 43 | 1015.5 |
| 20260506200107 | 58 | 261 | 0.9 | 5.2 | 0.00 | 0.00 | 0.00 | 43 | 1015.4 |
| 20260506195541 | 59 | 0 | 0.9 | 5.2 | 0.00 | 0.00 | 0.00 | 43 | 1015.4 |
| 20260506195042 | 59 | 238 | 0.9 | 6.1 | 0.00 | 0.00 | 0.00 | 45 | 1015.4 |
| 20260506194557 | 59 | 120 | 0.9 | 8.7 | 0.00 | 0.00 | 0.00 | 46 | 1015.5 |
| 20260506194040 | 59 | 247 | 0.9 | 8.7 | 0.00 | 0.00 | 0.00 | 43 | 1015.5 |
| 20260506193543 | 58 | 265 | 0.9 | 9.6 | 0.00 | 0.00 | 0.00 | 47 | 1015.6 |
| 20260506193048 | 58 | 265 | 1.7 | 9.6 | 0.00 | 0.00 | 0.00 | 44 | 1015.7 |
| 20260506192540 | 58 | 51 | 1.7 | 5.2 | 0.00 | 0.00 | 0.00 | 47 | 1015.7 |
| 20260506192043 | 58 | 275 | 0.9 | 6.1 | 0.00 | 0.00 | 0.00 | 46 | 1015.6 |
| 20260506191545 | 58 | 0 | 0.9 | 6.1 | 0.00 | 0.00 | 0.00 | 47 | 1015.8 |
| 20260506191041 | 58 | 242 | 0.9 | 6.1 | 0.00 | 0.00 | 0.00 | 45 | 1015.9 |
| 20260506190541 | 58 | 254 | 0.9 | 7.0 | 0.00 | 0.00 | 0.00 | 44 | 1015.8 |
| 20260506190055 | 58 | 0 | 0.9 | 7.0 | 0.00 | 0.00 | 0.00 | 44 | 1015.8 |
| 20260506185541 | 58 | 265 | 0.9 | 6.1 | 0.00 | 0.00 | 0.00 | 48 | 1015.8 |
| 20260506185045 | 58 | 178 | 0.9 | 4.3 | 0.00 | 0.00 | 0.00 | 46 | 1015.7 |
| 20260506184549 | 58 | 309 | 0.9 | 6.1 | 0.00 | 0.00 | 0.00 | 45 | 1015.8 |
| 20260506184040 | 58 | 265 | 0.9 | 8.7 | 0.00 | 0.00 | 0.00 | 46 | 1015.7 |
| 20260506183541 | 58 | 196 | 1.7 | 8.7 | 0.00 | 0.00 | 0.00 | 47 | 1015.6 |
| 20260506183102 | 58 | 31 | 1.7 | 8.7 | 0.00 | 0.00 | 0.00 | 44 | 1015.6 |
| 20260506182540 | 58 | 108 | 0.9 | 4.3 | 0.00 | 0.00 | 0.00 | 47 | 1015.6 |
| 20260506182041 | 58 | 9 | 0.9 | 4.3 | 0.00 | 0.00 | 0.00 | 50 | 1015.5 |
| 20260506181557 | 57 | 259 | 0.9 | 7.0 | 0.00 | 0.00 | 0.00 | 50 | 1015.5 |
| 20260506181039 | 57 | 171 | 0.9 | 7.0 | 0.00 | 0.00 | 0.00 | 49 | 1015.6 |
| 20260506180543 | 57 | 178 | 0.0 | 3.5 | 0.00 | 0.00 | 0.00 | 50 | 1015.6 |
| 20260506180056 | 56 | 18 | 0.9 | 4.3 | 0.00 | 0.00 | 0.00 | 48 | 1015.6 |
| 20260506175544 | 56 | 336 | 0.9 | 4.3 | 0.00 | 0.00 | 0.00 | 48 | 1015.8 |
| 20260506175040 | 56 | 279 | 0.9 | 4.3 | 0.00 | 0.00 | 0.00 | 48 | 1015.7 |
| 20260506174550 | 56 | 265 | 0.9 | 4.3 | 0.00 | 0.00 | 0.00 | 47 | 1015.7 |
| 20260506174038 | 57 | 175 | 0.9 | 5.2 | 0.00 | 0.00 | 0.00 | 48 | 1015.7 |
| 20260506173540 | 56 | 196 | 0.9 | 5.2 | 0.00 | 0.00 | 0.00 | 48 | 1015.7 |
| 20260506173054 | 56 | 309 | 0.0 | 7.0 | 0.00 | 0.00 | 0.00 | 50 | 1015.8 |
| 20260506172543 | 56 | 316 | 0.9 | 7.0 | 0.00 | 0.00 | 0.00 | 51 | 1015.9 |
| 20260506172042 | 56 | 48 | 0.9 | 5.2 | 0.00 | 0.00 | 0.00 | 49 | 1015.9 |
| 20260506171549 | 56 | 221 | 0.9 | 6.1 | 0.00 | 0.00 | 0.00 | 49 | 1016.0 |
| 20260506171041 | 56 | 0 | 0.9 | 6.1 | 0.00 | 0.00 | 0.00 | 49 | 1015.9 |
| 20260506170541 | 55 | 88 | 0.9 | 6.1 | 0.00 | 0.00 | 0.00 | 51 | 1016.0 |
| 20260506170049 | 55 | 265 | 0.9 | 6.1 | 0.00 | 0.00 | 0.00 | 49 | 1016.0 |
| 20260506165540 | 55 | 291 | 1.7 | 6.1 | 0.00 | 0.00 | 0.00 | 50 | 1016.1 |
| 20260506165039 | 55 | 319 | 0.9 | 5.2 | 0.00 | 0.00 | 0.00 | 54 | 1015.9 |
| 20260506164551 | 54 | 221 | 0.9 | 4.3 | 0.00 | 0.00 | 0.00 | 53 | 1016.1 |
| 20260506164038 | 54 | 51 | 0.0 | 6.1 | 0.00 | 0.00 | 0.00 | 53 | 1016.0 |
| 20260506163540 | 54 | 334 | 0.9 | 6.1 | 0.00 | 0.00 | 0.00 | 52 | 1016.0 |
| 20260506163054 | 53 | 344 | 0.9 | 4.3 | 0.00 | 0.00 | 0.00 | 55 | 1015.9 |
| 20260506162540 | 53 | 0 | 0.0 | 2.6 | 0.00 | 0.00 | 0.00 | 57 | 1015.9 |
| 20260506162040 | 53 | 178 | 0.0 | 5.2 | 0.00 | 0.00 | 0.00 | 59 | 1015.9 |
| 20260506161602 | 53 | 0 | 0.9 | 5.2 | 0.00 | 0.00 | 0.00 | 60 | 1015.8 |
| 20260506161038 | 52 | 221 | 0.9 | 5.2 | 0.00 | 0.00 | 0.00 | 60 | 1015.7 |
| 20260506160541 | 52 | 309 | 0.0 | 3.5 | 0.00 | 0.00 | 0.00 | 65 | 1015.7 |
| 20260506160049 | 52 | 282 | 0.0 | 3.5 | 0.00 | 0.00 | 0.00 | 62 | 1015.7 |
| 20260506155542 | 51 | 238 | 0.0 | 5.2 | 0.00 | 0.00 | 0.00 | 65 | 1015.7 |
| 20260506155041 | 51 | 0 | 0.0 | 5.2 | 0.00 | 0.00 | 0.00 | 65 | 1015.6 |
| 20260506154548 | 51 | 344 | 0.0 | 2.6 | 0.00 | 0.00 | 0.00 | 65 | 1015.6 |
| 20260506154041 | 51 | 0 | 0.0 | 2.6 | 0.00 | 0.00 | 0.00 | 70 | 1015.5 |
| 20260506153539 | 50 | 0 | 0.0 | 2.6 | 0.00 | 0.00 | 0.00 | 69 | 1015.4 |
| 20260506153051 | 50 | 0 | 0.0 | 1.7 | 0.00 | 0.00 | 0.00 | 72 | 1015.4 |
| 20260506152541 | 50 | 0 | 0.0 | 1.7 | 0.00 | 0.00 | 0.00 | 71 | 1015.4 |
| 20260506152043 | 50 | 93 | 0.0 | 1.7 | 0.00 | 0.00 | 0.00 | 72 | 1015.2 |
| 20260506151603 | 49 | 9 | 0.0 | 1.7 | 0.00 | 0.00 | 0.00 | 75 | 1015.2 |
| 20260506151038 | 49 | 56 | 0.0 | 2.6 | 0.00 | 0.00 | 0.00 | 75 | 1015.1 |
| 20260506150538 | 49 | 93 | 0.0 | 2.6 | 0.00 | 0.00 | 0.00 | 75 | 1015.1 |
| 20260506150054 | 48 | 0 | 0.0 | 2.6 | 0.00 | 0.00 | 0.00 | 74 | 1015.0 |
| 20260506145539 | 48 | 0 | 0.0 | 1.7 | 0.00 | 0.00 | 0.00 | 76 | 1015.0 |
| 20260506145042 | 48 | 254 | 0.0 | 2.6 | 0.00 | 0.00 | 0.00 | 76 | 1014.9 |
| 20260506144557 | 48 | 137 | 0.0 | 2.6 | 0.00 | 0.00 | 0.00 | 76 | 1014.8 |
| 20260506144041 | 48 | 0 | 0.0 | 2.6 | 0.00 | 0.00 | 0.00 | 78 | 1014.9 |
| 20260506143539 | 47 | 34 | 0.0 | 1.7 | 0.00 | 0.00 | 0.00 | 78 | 1014.7 |
| 20260506143053 | 47 | 0 | 0.0 | 1.7 | 0.00 | 0.00 | 0.00 | 77 | 1014.7 |
| 20260506142538 | 47 | 221 | 0.0 | 2.6 | 0.00 | 0.00 | 0.00 | 77 | 1014.8 |
| 20260506142038 | 47 | 0 | 0.0 | 2.6 | 0.00 | 0.00 | 0.00 | 78 | 1014.9 |
| 20260506141552 | 47 | 61 | 0.0 | 2.6 | 0.00 | 0.00 | 0.00 | 78 | 1015.0 |
| 20260506141041 | 47 | 255 | 0.0 | 2.6 | 0.00 | 0.00 | 0.00 | 78 | 1015.0 |
| 20260506140540 | 46 | 0 | 0.0 | 2.6 | 0.00 | 0.00 | 0.00 | 78 | 1015.0 |
| 20260506135538 | 46 | 51 | 0.0 | 1.7 | 0.00 | 0.01 | 0.00 | 81 | 1015.0 |
| 20260506135038 | 46 | 257 | 0.0 | 1.7 | 0.00 | 0.01 | 0.00 | 81 | 1015.0 |
| 20260506134550 | 45 | 0 | 0.0 | 1.7 | 0.00 | 0.01 | 0.00 | 80 | 1015.1 |
| 20260506134038 | 45 | 34 | 0.0 | 0.9 | 0.00 | 0.01 | 0.00 | 82 | 1015.2 |
| 20260506133541 | 45 | 0 | 0.0 | 1.7 | 0.00 | 0.01 | 0.00 | 81 | 1015.1 |
| 20260506133054 | 45 | 0 | 0.0 | 1.7 | 0.00 | 0.01 | 0.00 | 81 | 1015.0 |
| 20260506132541 | 45 | 51 | 0.0 | 1.7 | 0.00 | 0.01 | 0.00 | 82 | 1015.1 |
| 20260506132043 | 44 | 0 | 0.0 | 1.7 | 0.00 | 0.01 | 0.00 | 83 | 1015.2 |
| 20260506131552 | 44 | 0 | 0.0 | 0.9 | 0.00 | 0.01 | 0.00 | 84 | 1015.4 |
| 20260506131040 | 44 | 0 | 0.0 | 1.7 | 0.00 | 0.01 | 0.00 | 85 | 1015.3 |
| 20260506130540 | 44 | 0 | 0.0 | 1.7 | 0.00 | 0.01 | 0.00 | 85 | 1015.2 |
| 20260506130108 | 44 | 0 | 0.0 | 1.7 | 0.00 | 0.01 | 0.00 | 85 | 1015.1 |
| 20260506125540 | 44 | 0 | 0.0 | 0.9 | 0.00 | 0.03 | 0.00 | 85 | 1014.9 |
| 20260506125040 | 44 | 0 | 0.0 | 1.7 | 0.00 | 0.03 | 0.00 | 85 | 1014.7 |
| 20260506124550 | 44 | 0 | 0.0 | 1.7 | 0.00 | 0.03 | 0.00 | 85 | 1014.6 |
| 20260506124038 | 44 | 0 | 0.0 | 0.9 | 0.00 | 0.03 | 0.00 | 86 | 1014.4 |
| 20260506123538 | 43 | 0 | 0.0 | 0.9 | 0.00 | 0.03 | 0.00 | 86 | 1014.3 |
| 20260506123050 | 43 | 0 | 0.0 | 1.7 | 0.00 | 0.03 | 0.00 | 86 | 1014.2 |
| 20260506122538 | 43 | 0 | 0.0 | 1.7 | 0.00 | 0.03 | 0.00 | 87 | 1014.1 |
| 20260506122038 | 43 | 0 | 0.0 | 1.7 | 0.00 | 0.03 | 0.00 | 88 | 1014.0 |
| 20260506121549 | 43 | 0 | 0.0 | 0.9 | 0.00 | 0.03 | 0.00 | 88 | 1013.8 |
| 20260506121041 | 43 | 265 | 0.0 | 0.9 | 0.00 | 0.03 | 0.00 | 87 | 1013.7 |
| 20260506120541 | 42 | 137 | 0.0 | 0.9 | 0.00 | 0.03 | 0.00 | 88 | 1013.7 |
| 20260506120048 | 42 | 0 | 0.0 | 0.9 | 0.00 | 0.03 | 0.00 | 87 | 1013.7 |
| 20260506115541 | 42 | 238 | 0.0 | 0.9 | 0.00 | 0.03 | 0.00 | 87 | 1013.7 |
| 20260506115039 | 42 | 0 | 0.0 | 0.9 | 0.00 | 0.03 | 0.00 | 86 | 1013.5 |
| 20260506114551 | 42 | 221 | 0.0 | 0.9 | 0.00 | 0.03 | 0.00 | 86 | 1013.4 |
| 20260506114040 | 42 | 0 | 0.0 | 0.9 | 0.00 | 0.03 | 0.00 | 86 | 1013.2 |
| 20260506113540 | 42 | 221 | 0.0 | 1.7 | 0.00 | 0.03 | 0.00 | 85 | 1013.2 |
| 20260506113104 | 42 | 0 | 0.0 | 1.7 | 0.00 | 0.03 | 0.00 | 85 | 1012.9 |
| 20260506112541 | 42 | 265 | 0.0 | 1.7 | 0.00 | 0.03 | 0.00 | 85 | 1012.7 |
| 20260506112038 | 42 | 265 | 0.0 | 1.7 | 0.00 | 0.03 | 0.00 | 85 | 1012.6 |
| 20260506111601 | 42 | 0 | 0.0 | 1.7 | 0.00 | 0.03 | 0.00 | 85 | 1012.6 |
| 20260506111040 | 42 | 0 | 0.0 | 0.9 | 0.00 | 0.03 | 0.00 | 86 | 1012.5 |
| 20260506110539 | 42 | 51 | 0.0 | 1.7 | 0.00 | 0.03 | 0.00 | 86 | 1012.6 |
| 20260506110056 | 42 | 0 | 0.0 | 1.7 | 0.00 | 0.03 | 0.00 | 87 | 1012.5 |
| 20260506105540 | 42 | 0 | 0.0 | 1.7 | 0.00 | 0.03 | 0.00 | 87 | 1012.5 |
| 20260506105041 | 42 | 0 | 0.0 | 1.7 | 0.00 | 0.03 | 0.00 | 87 | 1012.5 |
| 20260506104610 | 42 | 0 | 0.0 | 1.7 | 0.00 | 0.03 | 0.00 | 88 | 1012.4 |
| 20260506104041 | 42 | 0 | 0.0 | 0.9 | 0.00 | 0.03 | 0.00 | 88 | 1012.3 |
| 20260506103541 | 42 | 0 | 0.0 | 0.9 | 0.00 | 0.03 | 0.00 | 89 | 1012.2 |
| 20260506103049 | 42 | 0 | 0.0 | 0.9 | 0.00 | 0.03 | 0.00 | 89 | 1012.1 |
| 20260506102541 | 42 | 0 | 0.0 | 0.9 | 0.00 | 0.03 | 0.00 | 89 | 1012.1 |
| 20260506102041 | 42 | 0 | 0.0 | 0.9 | 0.00 | 0.03 | 0.00 | 89 | 1011.9 |
| 20260506101556 | 42 | 0 | 0.0 | 0.9 | 0.00 | 0.03 | 0.00 | 89 | 1012.2 |
| 20260506101040 | 42 | 0 | 0.0 | 0.9 | 0.00 | 0.03 | 0.00 | 89 | 1012.2 |
| 20260506100538 | 42 | 0 | 0.0 | 1.7 | 0.00 | 0.03 | 0.00 | 89 | 1012.2 |
| 20260506100104 | 42 | 0 | 0.0 | 1.7 | 0.00 | 0.03 | 0.00 | 89 | 1012.1 |
| 20260506095543 | 43 | 265 | 0.0 | 0.9 | 0.00 | 0.03 | 0.00 | 90 | 1012.2 |
| 20260506095040 | 43 | 0 | 0.0 | 0.9 | 0.00 | 0.03 | 0.00 | 90 | 1012.3 |
| 20260506094555 | 43 | 0 | 0.0 | 0.9 | 0.00 | 0.03 | 0.00 | 90 | 1012.0 |
| 20260506094039 | 43 | 196 | 0.0 | 0.9 | 0.00 | 0.03 | 0.00 | 90 | 1012.0 |
| 20260506093542 | 43 | 0 | 0.0 | 0.9 | 0.00 | 0.03 | 0.00 | 90 | 1011.9 |
| 20260506093047 | 43 | 0 | 0.0 | 0.9 | 0.00 | 0.03 | 0.00 | 90 | 1012.0 |
| 20260506092542 | 43 | 0 | 0.0 | 0.9 | 0.00 | 0.03 | 0.00 | 90 | 1011.7 |
| 20260506092042 | 43 | 0 | 0.0 | 1.7 | 0.00 | 0.03 | 0.00 | 90 | 1011.6 |
| 20260506091548 | 43 | 0 | 0.0 | 1.7 | 0.00 | 0.03 | 0.00 | 90 | 1011.6 |
| 20260506091043 | 43 | 0 | 0.0 | 0.9 | 0.00 | 0.03 | 0.00 | 91 | 1011.6 |
| 20260506090544 | 43 | 0 | 0.0 | 0.9 | 0.00 | 0.03 | 0.00 | 91 | 1011.7 |
| 20260506090047 | 43 | 0 | 0.0 | 0.9 | 0.00 | 0.03 | 0.00 | 91 | 1011.6 |
| 20260506085540 | 43 | 0 | 0.0 | 0.9 | 0.00 | 0.03 | 0.00 | 91 | 1011.6 |
| 20260506085040 | 43 | 0 | 0.0 | 0.9 | 0.00 | 0.03 | 0.00 | 91 | 1011.7 |
| 20260506084550 | 44 | 0 | 0.0 | 0.9 | 0.00 | 0.03 | 0.00 | 91 | 1012.0 |
| 20260506084040 | 44 | 0 | 0.0 | 0.9 | 0.00 | 0.03 | 0.00 | 91 | 1011.9 |
| 20260506083541 | 44 | 0 | 0.0 | 0.9 | 0.00 | 0.03 | 0.00 | 91 | 1011.9 |
| 20260506083050 | 44 | 0 | 0.0 | 0.9 | 0.00 | 0.03 | 0.00 | 91 | 1012.0 |
| 20260506082542 | 44 | 0 | 0.0 | 0.9 | 0.00 | 0.03 | 0.00 | 91 | 1011.9 |
| 20260506082044 | 44 | 0 | 0.0 | 0.9 | 0.00 | 0.03 | 0.00 | 91 | 1011.8 |
| 20260506081549 | 44 | 0 | 0.0 | 0.9 | 0.00 | 0.03 | 0.00 | 91 | 1011.8 |
| 20260506081041 | 44 | 0 | 0.0 | 0.9 | 0.00 | 0.03 | 0.00 | 91 | 1011.7 |
| 20260506080541 | 44 | 265 | 0.0 | 0.9 | 0.00 | 0.03 | 0.00 | 90 | 1011.5 |
| 20260506073050 | 45 | 0 | 0.0 | 0.9 | 0.00 | 0.03 | 0.00 | 89 | 1011.3 |
| 20260506072538 | 45 | 0 | 0.0 | 0.9 | 0.00 | 0.03 | 0.00 | 89 | 1011.3 |
| 20260506072043 | 45 | 221 | 0.0 | 0.9 | 0.00 | 0.03 | 0.00 | 88 | 1011.3 |
| 20260506071606 | 45 | 0 | 0.0 | 0.9 | 0.00 | 0.03 | 0.00 | 88 | 1011.3 |
| 20260506071038 | 45 | 247 | 0.0 | 0.9 | 0.00 | 0.03 | 0.00 | 87 | 1011.4 |
| 20260506070541 | 46 | 0 | 0.0 | 0.9 | 0.00 | 0.03 | 0.00 | 87 | 1011.2 |